1519128000.04,341,11.69,72660.0,-7.71,-17.63,-17.03,0,*51
1519128001.24,342,11.69,72662.3,-7.71,-17.49,-16.79,0,*56
1519128002.51,343,11.69,72656.3,-7.69,-17.41,-16.65,0,*5B
1519128003.76,344,11.69,72658.8,-7.69,-17.55,-16.75,0,*58
1519128005.01,345,11.69,72656.0,-7.69,-17.25,-16.41,0,*59
1519128006.26,346,11.69,72658.8,-7.69,-17.87,-17.25,0,*51
1519128007.48,347,11.69,72658.0,-7.69,-17.73,-16.97,0,*53
1519128008.72,348,11.69,72660.3,-7.69,-16.97,-16.27,0,*5C
1519128009.98,349,11.69,72658.5,-7.69,-16.83,-16.09,0,*54
1519128011.23,350,11.69,72658.5,-7.67,-16.69,-15.85,0,*51
1519128012.43,351,11.69,72656.0,-7.67,-16.83,-15.99,0,*59
1519128013.68,352,11.69,72666.0,-7.67,-17.03,-16.27,0,*55
1519128014.91,353,11.69,72664.5,-7.67,-16.83,-16.09,0,*51
1519128016.15,354,11.69,72662.8,-7.65,-17.59,-16.93,0,*51
1519128017.4,355,11.69,72660.3,-7.67,-17.79,-17.03,0,*58
1519128018.63,356,11.69,72668.3,-7.67,-17.41,-16.75,0,*50
1519128019.86,357,11.69,72658.0,-7.67,-17.11,-16.41,0,*53
1519128021.08,358,11.69,72654.0,-7.67,-18.01,-17.31,0,*54
1519128022.33,359,11.69,72660.3,-7.67,-18.35,-17.63,0,*55
1519128023.55,360,11.69,72654.3,-7.67,-17.63,-16.97,0,*59
1519128024.77,361,11.69,72662.8,-7.71,-17.69,-17.03,0,*59
1519128026.05,362,11.69,72658.3,-7.69,-17.41,-16.69,0,*54
1519128027.32,363,11.69,72658.8,-7.69,-17.41,-16.65,0,*59
1519128028.6,364,11.69,72662.5,-7.69,-17.45,-16.65,0,*5A
1519128029.84,365,11.69,72660.3,-7.69,-17.63,-16.89,0,*5D
1519128031.06,366,11.69,72660.3,-7.71,-17.59,-16.89,0,*5E
1519128032.27,367,11.69,72656.5,-7.71,-17.11,-16.37,0,*56
1519128033.54,368,11.69,72652.8,-7.69,-17.93,-17.25,0,*58
1519128034.79,369,11.69,72654.3,-7.69,-17.31,-16.65,0,*54
1519128035.98,370,11.69,72660.5,-7.71,-17.31,-16.55,0,*56
1519128037.2,371,11.69,72662.5,-7.71,-17.69,-17.03,0,*58
1519128038.48,372,11.69,72660.3,-7.69,-17.41,-16.65,0,*59
1519128039.7,373,11.69,72660.5,-7.71,-17.35,-16.69,0,*5E
1519128040.94,374,11.69,72660.8,-7.69,-17.63,-16.89,0,*5D
1519128042.14,375,11.69,72660.0,-7.71,-17.49,-16.79,0,*52
1519128043.42,376,11.69,72662.5,-7.69,-17.17,-16.51,0,*59
1519128044.66,377,11.69,72658.3,-7.69,-17.11,-16.37,0,*5E
1519128045.94,378,11.69,72660.8,-7.69,-17.41,-16.69,0,*5F
1519128047.15,379,11.69,72652.5,-7.71,-17.63,-16.93,0,*52
1519128048.43,380,11.69,72660.0,-7.69,-17.45,-16.65,0,*50
1519128049.68,381,11.69,72660.5,-7.69,-17.87,-17.11,0,*5D
1519128050.95,382,11.69,72666.0,-7.69,-17.41,-16.65,0,*56
1519128052.2,383,11.69,72658.0,-7.69,-17.55,-16.83,0,*5A
1519128053.42,384,11.69,72662.8,-7.71,-17.55,-16.83,0,*54
1519128054.68,385,11.69,72660.5,-7.69,-17.17,-16.55,0,*51
1519128055.95,386,11.69,72660.3,-7.69,-17.41,-16.65,0,*52
1519128057.17,387,11.69,72660.3,-7.67,-17.31,-16.69,0,*56
1519128058.42,388,11.69,72660.0,-7.69,-17.31,-16.65,0,*5B
1519128059.66,389,11.69,72656.3,-7.69,-18.01,-17.31,0,*56
1519128060.91,390,11.69,72656.3,-7.69,-18.45,-17.79,0,*52
1519128062.13,391,11.69,72666.0,-7.69,-18.17,-17.31,0,*58
1519128063.37,392,11.69,72658.0,-7.69,-18.21,-17.55,0,*5C
1519128064.59,393,11.69,72658.0,-7.71,-18.41,-17.63,0,*57
1519128065.87,394,11.69,72658.5,-7.73,-17.63,-17.03,0,*5B
1519128067.11,395,11.69,72668.0,-7.73,-18.11,-17.45,0,*52
1519128068.37,396,11.69,72662.3,-7.75,-17.97,-17.21,0,*54
1519128069.61,397,11.69,72656.3,-7.73,-17.59,-16.89,0,*52
1519128070.83,398,11.69,72660.5,-7.73,-17.31,-16.55,0,*52
1519128072.08,399,11.69,72664.3,-7.73,-17.93,-17.31,0,*58
1519128073.29,400,11.69,72656.0,-7.73,-17.69,-16.93,0,*53
1519128074.52,401,11.69,72658.0,-7.75,-18.25,-17.63,0,*5D
1519128075.77,402,11.69,72656.8,-7.75,-18.55,-17.97,0,*52
1519128077.0,403,11.69,72654.8,-7.75,-18.31,-17.73,0,*5B
1519128078.24,404,11.69,72664.5,-7.77,-18.17,-17.55,0,*5E
1519128079.5,405,11.69,72650.8,-7.77,-17.69,-17.07,0,*5E
1519128080.74,406,11.69,72658.5,-7.77,-18.11,-17.41,0,*5F
1519128081.99,407,11.69,72654.5,-7.77,-18.07,-17.25,0,*5B
1519128083.21,408,11.69,72658.3,-7.79,-17.73,-17.03,0,*52
1519128084.47,409,11.69,72656.8,-7.77,-17.25,-16.59,0,*50
1519128085.7,410,11.69,72662.3,-7.79,-17.25,-16.55,0,*5A
1519128086.92,411,11.69,72662.3,-7.79,-17.25,-16.55,0,*5B
1519128088.15,412,11.69,72654.3,-7.79,-18.07,-17.45,0,*57
1519128089.38,413,11.69,72656.5,-7.79,-18.07,-17.55,0,*57
1519128090.6,414,11.69,72654.8,-7.79,-17.73,-17.11,0,*5C
1519128091.85,415,11.69,72656.0,-7.79,-17.25,-16.65,0,*5C
1519128093.07,416,11.69,72656.0,-7.79,-17.87,-17.17,0,*53
1519128094.3,417,11.69,72658.0,-7.79,-17.45,-16.83,0,*50
1519128095.53,418,11.69,72656.3,-7.79,-18.21,-17.55,0,*58
1519128096.72,419,11.69,72660.0,-7.79,-17.87,-17.31,0,*58
1519128097.95,420,11.69,72660.0,-7.79,-17.87,-17.17,0,*56
1519128099.2,421,11.69,72658.0,-7.81,-17.55,-16.83,0,*53
1519128100.45,422,11.69,72656.3,-7.81,-18.07,-17.55,0,*52
1519128101.7,423,11.69,72662.5,-7.81,-17.69,-17.03,0,*57
1519128102.96,424,11.69,72662.8,-7.81,-17.73,-17.11,0,*58
1519128104.21,425,11.69,72662.5,-7.81,-17.87,-17.17,0,*54
1519128105.46,426,11.69,72660.3,-7.83,-17.63,-17.03,0,*5A
1519128106.74,427,11.69,72664.8,-7.81,-17.25,-16.69,0,*56
1519128107.99,428,11.69,72660.0,-7.83,-17.79,-17.21,0,*5F
1519128109.24,429,11.69,72666.5,-7.81,-17.73,-17.25,0,*52
1519128110.47,430,11.69,72664.0,-7.83,-17.07,-16.45,0,*5C
1519128111.69,431,11.69,72660.0,-7.83,-17.07,-16.45,0,*5D
1519128112.94,432,11.69,72656.3,-7.81,-17.69,-17.11,0,*54
1519128114.15,433,11.69,72660.3,-7.83,-18.11,-17.73,0,*53
1519128115.35,434,11.69,72660.5,-7.83,-17.83,-17.31,0,*56
1519128116.59,435,11.69,72662.5,-7.83,-17.41,-16.83,0,*51
1519128117.83,436,11.69,72660.0,-7.83,-17.45,-16.83,0,*56
1519128119.09,437,11.69,72656.5,-7.83,-17.63,-17.07,0,*5E
1519128120.3,438,11.69,72660.8,-7.83,-17.35,-16.83,0,*5F
1519128121.55,439,11.69,72666.0,-7.81,-17.45,-16.97,0,*5E
1519128122.78,440,11.69,72660.0,-7.83,-17.69,-17.17,0,*55
1519128124.01,441,11.69,72656.5,-7.83,-18.07,-17.59,0,*59
1519128125.25,442,11.69,72660.0,-7.83,-17.97,-17.49,0,*5D
1519128126.47,443,11.69,72658.5,-7.83,-17.93,-17.31,0,*57
1519128127.72,444,11.69,72660.0,-7.85,-17.93,-17.31,0,*56
1519128128.94,445,11.69,72662.8,-7.85,-18.11,-17.73,0,*54
1519128130.19,446,11.69,72658.5,-7.85,-18.07,-17.55,0,*54
1519128131.42,447,11.69,72656.8,-7.89,-17.69,-17.11,0,*5E
1519128132.64,448,11.69,72662.3,-7.89,-16.97,-16.51,0,*54
1519128133.86,449,11.69,72654.0,-7.85,-17.35,-16.89,0,*55
1519128135.09,450,11.69,72658.3,-7.85,-17.83,-17.31,0,*52
1519128136.29,451,11.69,72652.5,-7.89,-17.35,-16.79,0,*5F
1519128137.54,452,11.69,72662.5,-7.85,-17.03,-16.55,0,*5B
1519128138.79,453,11.69,72662.3,-7.85,-17.03,-16.45,0,*5B
1519128140.02,454,11.69,72662.8,-7.85,-17.35,-16.89,0,*59
1519128141.21,455,11.69,72666.8,-7.89,-16.89,-16.37,0,*57
1519128142.46,456,11.69,72658.8,-7.85,-17.93,-17.49,0,*5A
1519128143.71,457,11.69,72662.0,-7.85,-18.07,-17.59,0,*58
1519128144.97,458,11.69,72662.3,-7.85,-17.49,-17.07,0,*59
1519128146.25,459,11.69,72656.8,-7.85,-17.07,-16.69,0,*5B
1519128147.53,460,11.69,72660.0,-7.85,-17.17,-16.69,0,*50
1519128148.81,461,11.69,72660.5,-7.85,-17.17,-16.69,0,*51
1519128150.03,462,11.69,72658.5,-7.85,-16.93,-16.45,0,*51
1519128151.28,463,11.69,72662.8,-7.85,-17.03,-16.55,0,*59
1519128152.54,464,11.69,72660.8,-7.85,-17.21,-16.83,0,*55
1519128153.77,465,11.69,72662.5,-7.85,-17.31,-16.75,0,*5C
1519128155.02,466,11.69,72664.8,-7.85,-17.21,-16.83,0,*57
1519128156.25,467,11.69,72658.0,-7.83,-17.07,-16.55,0,*5F
1519128157.46,468,11.69,72656.5,-7.83,-16.89,-16.41,0,*52
1519128158.72,469,11.69,72654.8,-7.83,-17.17,-16.69,0,*5F
1519128159.96,470,11.69,72656.3,-7.83,-17.07,-16.59,0,*55
1519128161.16,471,11.69,72656.0,-7.83,-16.93,-16.45,0,*55
1519128162.39,472,11.69,72656.8,-7.83,-17.07,-16.59,0,*57
1519128163.63,473,11.69,72656.5,-7.83,-17.07,-16.59,0,*56
1519128164.84,474,11.69,72658.5,-7.83,-17.35,-16.89,0,*5D
1519128166.1,475,11.69,72658.3,-7.81,-17.17,-16.79,0,*51
1519128167.38,476,11.69,72660.0,-7.81,-17.41,-17.17,0,*58
1519128168.61,477,11.69,72664.3,-7.83,-17.07,-16.75,0,*5C
1519128169.85,478,11.69,72658.3,-7.83,-17.17,-16.59,0,*5C
1519128171.08,479,11.69,72658.8,-7.83,-16.89,-16.31,0,*55
1519128172.32,480,11.69,72662.8,-7.83,-17.03,-16.55,0,*52
1519128173.56,481,11.69,72666.5,-7.81,-16.97,-16.51,0,*59
1519128174.77,482,11.69,72658.3,-7.83,-16.55,-16.03,0,*51
1519128176.05,483,11.69,72660.3,-7.81,-17.03,-16.69,0,*5C
1519128177.27,484,11.69,72660.3,-7.81,-17.31,-16.89,0,*54
1519128178.52,485,11.69,72660.0,-7.81,-17.11,-16.55,0,*56
1519128179.75,486,11.69,72660.0,-7.81,-16.97,-16.41,0,*5F
1519128180.97,487,11.69,72660.8,-7.81,-17.31,-16.89,0,*57
1519128182.2,488,11.69,72664.0,-7.83,-17.73,-17.21,0,*5F
1519128183.46,489,11.69,72664.3,-7.83,-17.45,-17.03,0,*5B
1519128184.7,490,11.69,72662.5,-7.83,-17.21,-16.75,0,*51
1519128185.96,491,11.69,72662.0,-7.83,-16.69,-16.13,0,*5D
1519128187.24,492,11.69,72666.8,-7.81,-16.65,-16.13,0,*50
1519128188.47,493,11.69,72664.5,-7.81,-16.55,-15.99,0,*53
1519128189.72,494,11.69,72664.0,-7.81,-16.79,-16.27,0,*5C
1519128190.98,495,11.69,72662.8,-7.83,-17.97,-17.59,0,*56
1519128192.21,496,11.69,72658.8,-7.81,-17.87,-17.31,0,*58
1519128193.46,497,11.69,72660.5,-7.83,-17.79,-17.21,0,*5B
1519128194.71,498,11.69,72656.3,-7.81,-17.97,-17.49,0,*58
1519128195.95,499,11.69,72662.8,-7.83,-18.21,-17.59,0,*58
1519128197.18,500,11.69,72654.5,-7.83,-17.49,-17.03,0,*57
1519128198.44,501,11.69,72660.0,-7.85,-17.49,-17.07,0,*54
1519128199.69,502,11.69,72660.3,-7.85,-17.17,-16.93,0,*50
1519128200.89,503,11.69,72660.8,-7.89,-17.35,-16.89,0,*56
1519128202.15,504,11.69,72658.8,-7.85,-17.17,-16.75,0,*5E
1519128203.4,505,11.69,72668.0,-7.85,-17.45,-16.93,0,*50
1519128204.62,506,11.69,72658.3,-7.89,-17.41,-16.93,0,*5B
1519128205.9,507,11.69,72660.8,-7.85,-17.93,-17.41,0,*57
1519128207.1,508,11.69,72660.0,-7.89,-17.35,-16.93,0,*56
1519128208.32,509,11.69,72660.0,-7.85,-16.93,-16.55,0,*5C
1519128209.55,510,11.69,72662.8,-7.89,-16.79,-16.23,0,*5D
1519128210.82,511,11.69,72660.3,-7.85,-17.59,-17.17,0,*55
1519128212.05,512,11.69,72654.8,-7.89,-17.21,-16.59,0,*5E
1519128213.3,513,11.69,72662.8,-7.85,-16.83,-16.31,0,*54
1519128214.52,514,11.69,72660.3,-7.85,-16.93,-16.41,0,*55
1519128215.77,515,11.69,72662.8,-7.85,-16.89,-16.31,0,*58
1519128217.03,516,11.69,72658.0,-7.85,-17.03,-16.59,0,*56
1519128218.25,517,11.69,72656.5,-7.85,-17.73,-17.31,0,*5F
1519128219.47,518,11.69,72666.3,-7.85,-17.31,-16.93,0,*5F
1519128220.67,519,11.69,72664.3,-7.89,-17.35,-16.83,0,*57
1519128221.95,520,11.69,72660.5,-7.85,-17.59,-17.07,0,*56
1519128223.21,521,11.69,72656.8,-7.85,-18.41,-17.97,0,*58
1519128224.43,522,11.69,72656.0,-7.89,-18.17,-17.63,0,*5F
1519128225.69,523,11.69,72656.5,-7.91,-17.97,-17.35,0,*53
1519128226.96,524,11.69,72650.3,-7.91,-17.79,-17.25,0,*55
1519128228.18,525,11.69,72660.8,-7.93,-17.83,-17.25,0,*53
1519128229.4,526,11.69,72664.3,-7.89,-17.21,-16.79,0,*5B
1519128230.62,527,11.69,72666.8,-7.93,-17.25,-16.93,0,*51
1519128231.81,528,11.69,72656.5,-7.93,-18.17,-17.69,0,*54
1519128233.04,529,11.69,72654.5,-7.91,-18.17,-17.69,0,*57
1519128234.23,530,11.69,72668.8,-7.93,-18.49,-18.17,0,*50
1519128235.48,531,11.69,72662.3,-7.95,-18.35,-17.87,0,*5A
1519128236.69,532,11.69,72658.8,-7.97,-18.25,-17.87,0,*5A
1519128237.96,533,11.69,72662.8,-7.95,-18.89,-18.31,0,*5D
1519128239.18,534,11.69,72666.5,-7.97,-18.07,-17.63,0,*56
1519128240.44,535,11.69,72660.8,-7.99,-18.31,-17.83,0,*52
1519128241.67,536,11.69,72660.8,-8.01,-18.41,-18.01,0,*5D
1519128242.93,537,11.69,72660.5,-8.01,-18.31,-17.79,0,*5B
1519128244.15,538,11.69,72662.8,-8.01,-18.59,-18.17,0,*5D
1519128245.4,539,11.69,72662.8,-7.99,-18.11,-17.63,0,*52
1519128246.67,540,11.69,72656.0,-8.03,-18.01,-17.55,0,*54
1519128247.93,541,11.69,72656.0,-8.03,-18.31,-17.69,0,*59
1519128249.18,542,11.69,72656.0,-8.03,-17.83,-17.41,0,*56
1519128250.43,543,11.69,72652.5,-8.03,-17.69,-17.25,0,*51
1519128251.65,544,11.69,72656.8,-8.05,-17.83,-17.25,0,*54
1519128252.85,545,11.69,72652.3,-8.05,-17.31,-16.83,0,*51
1519128254.07,546,11.69,72654.0,-8.05,-17.83,-17.25,0,*56
1519128255.3,547,11.69,72658.0,-8.01,-17.41,-16.89,0,*5A
1519128256.53,548,11.69,72658.0,-8.05,-17.41,-16.79,0,*5E
1519128257.78,549,11.69,72660.0,-8.03,-16.83,-16.23,0,*59
1519128259.03,550,11.69,72658.0,-8.03,-17.11,-16.55,0,*5A
1519128260.28,551,11.69,72658.5,-8.03,-17.11,-16.55,0,*5B
1519128261.52,552,11.69,72658.3,-8.03,-17.31,-16.69,0,*55
1519128262.77,553,11.69,72660.8,-8.01,-17.25,-16.65,0,*5F
1519128264.01,554,11.69,72662.8,-8.01,-17.25,-16.75,0,*59
1519128265.28,555,11.69,72660.3,-7.99,-17.79,-17.21,0,*5F
1519128266.53,556,11.69,72660.0,-8.01,-17.79,-17.25,0,*56
1519128267.77,557,11.69,72658.0,-8.01,-17.11,-16.65,0,*5C
1519128269.05,558,11.69,72656.3,-7.99,-17.25,-16.65,0,*5A
1519128270.34,559,11.69,72656.3,-7.99,-17.79,-17.07,0,*57
1519128271.56,560,11.69,72656.8,-8.01,-17.83,-17.11,0,*51
1519128272.79,561,11.69,72656.8,-8.01,-17.69,-17.03,0,*57
1519128274.01,562,11.69,72656.3,-8.01,-17.07,-16.37,0,*5A
1519128275.22,563,11.69,72660.3,-8.01,-16.79,-16.03,0,*54
1519128276.49,564,11.69,72658.5,-7.99,-17.25,-16.51,0,*52
1519128277.7,565,11.69,72656.5,-8.01,-17.35,-16.75,0,*5A
1519128278.96,566,11.69,72662.3,-7.99,-17.25,-16.59,0,*58
1519128280.18,567,11.69,72662.5,-7.97,-17.07,-16.45,0,*5A
1519128281.46,568,11.69,72660.3,-7.99,-17.03,-16.31,0,*5C
1519128282.7,569,11.69,72662.0,-7.99,-17.35,-16.75,0,*58
1519128283.92,570,11.69,72664.0,-7.99,-18.25,-17.49,0,*50
1519128285.18,571,11.69,72660.0,-7.99,-17.35,-16.65,0,*50
1519128286.46,572,11.69,72662.5,-7.99,-17.55,-17.03,0,*54
1519128287.67,573,11.69,72662.3,-8.01,-17.11,-16.45,0,*58
1519128288.92,574,11.69,72660.0,-7.99,-16.93,-16.31,0,*59
1519128290.2,575,11.69,72662.0,-7.99,-17.07,-16.51,0,*52
1519128291.43,576,11.69,72662.3,-7.97,-16.89,-16.17,0,*5A
1519128292.67,577,11.69,72660.5,-7.97,-17.93,-17.17,0,*50
1519128293.9,578,11.69,72658.0,-7.97,-17.87,-17.21,0,*5F
1519128295.09,579,11.69,72660.8,-7.97,-17.49,-16.89,0,*5F
1519128296.3,580,11.69,72660.3,-7.97,-17.35,-16.75,0,*51
1519128297.5,581,11.69,72658.8,-7.97,-17.31,-16.59,0,*5A
1519128298.72,582,11.69,72662.0,-7.97,-17.07,-16.45,0,*51
1519128299.99,583,11.69,72662.0,-7.95,-17.03,-16.51,0,*53
1519128301.26,584,11.69,72658.5,-7.95,-17.25,-16.65,0,*57
1519128302.51,585,11.69,72660.3,-7.95,-17.87,-17.25,0,*5B
1519128303.75,586,11.69,72658.8,-7.95,-17.31,-16.69,0,*5C
1519128305.02,587,11.69,72660.3,-7.95,-17.25,-16.69,0,*58
1519128306.27,588,11.69,72658.8,-7.97,-17.63,-17.07,0,*5E
1519128307.49,589,11.69,72650.8,-7.97,-17.79,-17.31,0,*51
1519128308.74,590,11.69,72662.8,-7.95,-17.45,-16.93,0,*5D
1519128309.96,591,11.69,72660.0,-7.97,-17.31,-16.69,0,*58
1519128311.23,592,11.69,72664.0,-7.95,-17.17,-16.51,0,*56
1519128312.5,593,11.69,72660.3,-7.95,-17.59,-17.03,0,*5B
1519128313.75,594,11.69,72660.8,-7.95,-17.69,-17.03,0,*5F
1519128314.99,595,11.69,72660.0,-7.95,-17.45,-16.93,0,*58
1519128316.24,596,11.69,72660.0,-7.95,-17.93,-17.31,0,*59
1519128317.48,597,11.69,72660.8,-7.95,-17.55,-16.83,0,*5A
1519128318.74,598,11.69,72658.3,-7.95,-17.41,-16.83,0,*50
1519128319.99,599,11.69,72664.8,-7.95,-17.25,-16.55,0,*58
1519128321.26,600,11.69,72658.0,-7.95,-17.25,-16.65,0,*58
1519128322.51,601,11.69,72660.0,-7.93,-17.25,-16.65,0,*5F
1519128323.76,602,11.69,72656.0,-7.91,-17.25,-16.59,0,*51
1519128324.96,603,11.69,72658.3,-7.93,-16.97,-16.41,0,*53
1519128326.21,604,11.69,72658.0,-7.93,-17.17,-16.65,0,*5B
1519128327.43,605,11.69,72658.3,-7.93,-17.17,-16.55,0,*59
1519128328.68,606,11.69,72662.8,-7.91,-17.41,-16.89,0,*5A
1519128329.92,607,11.69,72660.8,-7.91,-17.11,-16.45,0,*5E
1519128331.14,608,11.69,72662.5,-7.93,-17.31,-16.69,0,*5F
1519128332.4,609,11.69,72656.3,-7.91,-17.25,-16.59,0,*5A
1519128333.65,610,11.69,72656.8,-7.91,-17.69,-17.07,0,*50
1519128334.88,611,11.69,72660.3,-7.91,-17.35,-16.79,0,*50
1519128336.15,612,11.69,72664.5,-7.91,-17.63,-17.11,0,*5F
1519128337.4,613,11.69,72660.8,-7.91,-18.17,-17.63,0,*57
1519128338.68,614,11.69,72666.0,-7.91,-18.01,-17.55,0,*52
1519128339.92,615,11.69,72656.8,-7.91,-18.25,-17.79,0,*5B
1519128341.19,616,11.69,72656.0,-7.95,-18.35,-17.93,0,*59
1519128342.44,617,11.69,72658.5,-7.95,-18.17,-17.59,0,*5E
1519128343.69,618,11.69,72660.5,-7.95,-17.83,-17.25,0,*58
1519128344.93,619,11.69,72656.8,-7.95,-17.41,-16.93,0,*5B
1519128346.15,620,11.69,72662.0,-7.97,-17.79,-17.31,0,*51
1519128347.37,621,11.69,72660.5,-7.95,-18.21,-17.69,0,*5D
1519128348.62,622,11.69,72660.0,-7.95,-17.69,-17.17,0,*54
1519128349.86,623,11.69,72664.0,-7.95,-17.55,-16.97,0,*53
1519128351.11,624,11.69,72660.5,-7.95,-17.11,-16.55,0,*5A
1519128352.38,625,11.69,72656.8,-7.95,-17.25,-16.69,0,*53
1519128353.57,626,11.69,72658.5,-7.93,-17.31,-16.83,0,*57
1519128354.82,627,11.69,72660.5,-7.93,-17.55,-17.03,0,*5D
1519128356.06,628,11.69,72658.0,-7.95,-17.45,-16.93,0,*5D
1519128357.29,629,11.69,72656.5,-7.93,-17.41,-16.83,0,*5F
1519128358.48,630,11.69,72662.5,-7.93,-17.31,-16.97,0,*55
1519128359.71,631,11.69,72656.8,-7.93,-17.41,-16.83,0,*56
1519128360.9,632,11.69,72656.5,-7.93,-17.87,-17.31,0,*57
1519128362.15,633,11.69,72654.0,-7.93,-18.01,-17.41,0,*50
1519128363.39,634,11.69,72658.3,-7.93,-17.55,-17.03,0,*5F
1519128364.61,635,11.69,72658.0,-7.93,-17.45,-16.97,0,*53
1519128365.83,636,11.69,72660.5,-7.93,-17.41,-16.93,0,*50
1519128367.07,637,11.69,72656.0,-7.93,-17.11,-16.51,0,*5A
1519128368.28,638,11.69,72656.3,-7.93,-16.93,-16.51,0,*5E
1519128369.56,639,11.63,72654.0,-7.91,-17.11,-16.65,0,*51
1519128370.83,640,11.69,72660.8,-7.91,-17.11,-16.51,0,*58
1519128372.1,641,11.69,72662.0,-7.91,-17.07,-16.51,0,*5E
1519128373.35,642,11.69,72660.3,-7.89,-17.07,-16.65,0,*53
1519128374.6,643,11.69,72662.5,-7.91,-18.11,-17.55,0,*51
1519128375.83,644,11.69,72658.5,-7.91,-17.83,-17.35,0,*54
1519128377.07,645,11.69,72660.3,-7.91,-17.55,-16.93,0,*53
1519128378.33,646,11.69,72654.8,-7.91,-17.25,-16.79,0,*53
1519128379.58,647,11.69,72652.5,-7.85,-17.03,-16.55,0,*5D
1519128380.8,648,11.69,72656.8,-7.89,-17.69,-17.21,0,*50
1519128382.02,649,11.69,72656.8,-7.91,-17.49,-16.93,0,*52
1519128383.24,650,11.69,72656.0,-7.85,-16.93,-16.45,0,*52
1519128384.46,651,11.69,72658.3,-7.85,-16.93,-16.45,0,*53
1519128385.68,652,11.69,72660.3,-7.89,-17.21,-16.79,0,*5B
1519128386.94,653,11.69,72658.5,-7.85,-17.03,-16.55,0,*58
1519128388.13,654,11.69,72656.3,-7.89,-17.49,-16.89,0,*5C
1519128389.36,655,11.69,72660.5,-7.85,-17.83,-17.31,0,*55
1519128390.61,656,11.69,72664.0,-7.85,-17.21,-16.75,0,*5F
1519128391.88,657,11.69,72656.3,-7.85,-17.63,-17.17,0,*5D
1519128393.12,658,11.69,72662.5,-7.89,-17.79,-17.25,0,*54
1519128394.37,659,11.69,72662.3,-7.85,-17.63,-17.31,0,*57
1519128395.61,660,11.69,72660.8,-7.89,-17.55,-17.21,0,*55
1519128396.81,661,11.69,72662.8,-7.89,-17.35,-16.93,0,*5A
1519128398.04,662,11.69,72664.0,-7.89,-17.21,-16.79,0,*58
1519128399.3,663,11.69,72658.5,-7.85,-17.21,-16.75,0,*59
1519128400.54,664,11.69,72656.8,-7.85,-17.25,-16.89,0,*59
1519128401.79,665,11.69,72664.8,-7.89,-17.07,-16.51,0,*51
1519128403.01,666,11.69,72660.3,-7.85,-16.93,-16.55,0,*56
1519128404.21,667,11.69,72660.8,-7.83,-16.89,-16.45,0,*5B
1519128405.46,668,11.69,72662.0,-7.81,-17.69,-17.17,0,*5F
1519128406.66,669,11.69,72656.3,-7.83,-17.31,-16.89,0,*57
1519128407.89,670,11.69,72664.5,-7.81,-16.97,-16.41,0,*54
1519128409.12,671,11.69,72662.5,-7.83,-17.21,-16.83,0,*55
1519128410.32,672,11.69,72658.8,-7.83,-17.31,-16.89,0,*5D
1519128411.57,673,11.69,72658.0,-7.81,-17.73,-17.25,0,*5F
1519128412.79,674,11.69,72658.5,-7.83,-17.79,-17.31,0,*55
1519128414.03,675,11.69,72662.0,-7.83,-17.17,-16.83,0,*54
1519128415.23,676,11.69,72660.0,-7.83,-16.89,-16.45,0,*5B
1519128416.46,677,11.69,72660.8,-7.81,-16.97,-16.55,0,*56
1519128417.71,678,11.69,72662.3,-7.81,-17.25,-16.89,0,*50
1519128418.98,679,11.69,72662.3,-7.81,-17.55,-17.11,0,*56
1519128420.21,680,11.69,72662.0,-7.81,-16.97,-16.55,0,*5E
1519128421.44,681,11.69,72658.8,-7.79,-17.87,-17.41,0,*5C
1519128422.71,682,11.69,72662.0,-7.81,-17.11,-16.69,0,*5C
1519128423.97,683,11.69,72662.5,-7.81,-17.03,-16.55,0,*51
1519128425.22,684,11.69,72658.8,-7.81,-17.69,-17.25,0,*5C
1519128426.47,685,11.69,72662.3,-7.81,-18.35,-18.07,0,*54
1519128427.7,686,11.69,72660.8,-7.81,-18.07,-17.73,0,*5A
1519128428.9,687,11.69,72660.5,-7.83,-17.73,-17.31,0,*53
1519128430.14,688,11.69,72658.0,-7.81,-17.79,-17.31,0,*54
1519128431.4,689,11.69,72660.0,-7.81,-17.17,-16.83,0,*55
1519128432.62,690,11.69,72664.5,-7.81,-17.31,-16.89,0,*53
1519128433.85,691,11.69,72664.0,-7.81,-16.97,-16.55,0,*5E
1519128435.08,692,11.69,72662.0,-7.83,-17.07,-16.83,0,*5C
1519128436.36,693,11.69,72664.3,-7.81,-17.11,-16.65,0,*50
1519128437.61,694,11.69,72660.3,-7.79,-17.03,-16.69,0,*5F
1519128438.83,695,11.69,72660.0,-7.79,-17.03,-16.79,0,*5F
1519128440.08,696,11.69,72662.8,-7.77,-17.11,-16.75,0,*5D
1519128441.33,697,11.69,72666.0,-7.79,-17.55,-17.25,0,*56
1519128442.6,698,11.69,72662.8,-7.77,-17.07,-16.65,0,*55
1519128443.8,699,11.69,72662.3,-7.79,-17.31,-16.89,0,*5D
1519128445.05,700,11.69,72662.8,-7.77,-17.21,-16.79,0,*5C
1519128446.3,701,11.69,72664.3,-7.77,-17.21,-16.83,0,*58
1519128447.54,702,11.69,72668.0,-7.75,-17.63,-17.25,0,*52
1519128448.79,703,11.69,72666.5,-7.77,-17.87,-17.41,0,*59
1519128450.04,704,11.69,72662.3,-7.77,-17.49,-17.11,0,*59
1519128451.27,705,11.69,72664.3,-7.77,-17.73,-17.35,0,*57
1519128452.53,706,11.69,72666.0,-7.77,-17.63,-17.25,0,*54
1519128453.76,707,11.69,72660.0,-7.77,-17.73,-17.35,0,*55
1519128455.01,708,11.69,72666.3,-7.79,-17.55,-17.17,0,*50
1519128456.23,709,11.69,72664.8,-7.79,-17.69,-17.25,0,*5F
1519128457.48,710,11.69,72662.8,-7.79,-17.41,-17.03,0,*59
1519128458.68,711,11.69,72662.0,-7.79,-17.35,-16.93,0,*53
1519128459.91,712,11.69,72660.5,-7.77,-16.97,-16.75,0,*5F
1519128461.16,713,11.69,72660.5,-7.77,-17.11,-16.79,0,*5D
1519128462.4,714,11.69,72662.8,-7.77,-17.11,-16.83,0,*5F
1519128463.63,715,11.69,72662.3,-7.77,-16.97,-16.59,0,*56
1519128464.86,716,11.69,72660.3,-7.75,-16.65,-16.37,0,*52
1519128466.13,717,11.69,72662.8,-7.73,-16.69,-16.31,0,*5F
1519128467.36,718,11.69,72660.3,-7.75,-17.07,-16.79,0,*53
1519128468.59,719,11.69,72662.8,-7.75,-17.07,-16.83,0,*57
1519128469.83,720,11.69,72660.3,-7.73,-17.21,-16.93,0,*5E
1519128471.08,721,11.69,72660.3,-7.73,-17.69,-17.45,0,*59
1519128472.32,722,11.69,72658.0,-7.73,-17.31,-17.03,0,*55
1519128473.57,723,11.69,72664.0,-7.73,-17.03,-16.89,0,*56
1519128474.83,724,11.63,72656.5,-7.73,-17.03,-16.75,0,*52
1519128476.1,725,11.69,72658.0,-7.73,-17.07,-17.03,0,*57
1519128477.38,726,11.69,72654.5,-7.73,-17.45,-17.21,0,*52
1519128478.66,727,11.69,72662.8,-7.73,-17.45,-17.21,0,*53
1519128479.9,728,11.69,72660.5,-7.73,-16.93,-16.69,0,*5B
1519128481.15,729,11.69,72654.3,-7.71,-17.93,-17.79,0,*59
1519128482.35,730,11.69,72652.5,-7.71,-18.11,-17.83,0,*51
1519128483.59,731,11.69,72656.0,-7.73,-17.63,-17.49,0,*5E
1519128484.86,732,11.69,72662.0,-7.73,-17.59,-17.21,0,*5A
1519128486.11,733,11.69,72658.0,-7.73,-17.35,-17.21,0,*51
1519128487.36,734,11.69,72662.0,-7.73,-17.83,-17.63,0,*5D
1519128488.63,735,11.69,72660.3,-7.73,-17.79,-17.63,0,*59
1519128489.9,736,11.69,72664.3,-7.73,-17.93,-17.79,0,*55
1519128491.18,737,11.69,72662.5,-7.73,-17.21,-17.03,0,*50
1519128492.43,738,11.69,72660.3,-7.73,-17.03,-16.89,0,*5C
1519128493.68,739,11.69,72662.3,-7.73,-17.31,-17.07,0,*5B
1519128494.96,740,11.69,72662.0,-7.73,-17.45,-17.21,0,*52
1519128496.21,741,11.69,72660.0,-7.73,-17.49,-17.21,0,*5F
1519128497.46,742,11.69,72664.3,-7.73,-17.03,-16.79,0,*5E
1519128498.68,743,11.69,72660.0,-7.73,-16.93,-16.75,0,*5B
1519128499.93,744,11.69,72660.3,-7.71,-17.79,-17.59,0,*54
1519128501.17,745,11.69,72656.0,-7.73,-17.69,-17.45,0,*5B
1519128502.43,746,11.69,72660.5,-7.73,-18.07,-17.97,0,*50
1519128503.68,747,11.69,72656.8,-7.73,-17.97,-17.69,0,*56
1519128504.94,748,11.69,72658.5,-7.71,-17.21,-17.07,0,*5E
1519128506.13,749,11.69,72660.0,-7.71,-16.93,-16.75,0,*53
1519128507.35,750,11.69,72662.3,-7.71,-16.93,-16.69,0,*56
1519128508.6,751,11.69,72662.3,-7.71,-17.45,-17.17,0,*55
1519128509.82,752,11.69,72660.3,-7.71,-17.21,-16.93,0,*59
1519128511.1,753,11.69,72660.0,-7.69,-17.17,-17.03,0,*5C
1519128512.34,754,11.69,72664.3,-7.69,-17.11,-16.97,0,*51